Weather History for TNCM - May, 2014

Change the Weather History Date:

Wednesday, May 14, 2014

  Actual Average Record
Temperature  
Mean Temperature 80 °F -  
Max Temperature 84 °F 84 °F 87 °F (1998)
Min Temperature 75 °F 76 °F 71 °F (2004)
Cooling Degree Days 14    
Growing Degree Days 30 (Base 50)    
Moisture  
Dew Point 71 °F    
Average Humidity 74    
Maximum Humidity 83    
Minimum Humidity 59    
Precipitation  
Precipitation 0.12 in 0.11 in - ()
Sea Level Pressure  
Sea Level Pressure 30.01 in    
Wind  
Wind Speed 11 mph ()    
Max Wind Speed 15 mph    
Max Gust Speed 29 mph    
Visibility 6.8 miles    
Events Rain    
Averages and records for this station are not official NWS values.
T = Trace of Precipitation, MM = Missing Value Source: Averaged Metar Reports

Daily Weather History Graph

Daily Weather History Graph

Search for Another Location

Airport or City:

Trip Planner

Search our weather history database for the weather conditions in past years. The results will help you decide how hot, cold, wet, or windy it might be!

Date:

Astronomy

May. 14, 2014 Rise Set
Actual Time 5:39 AM AST 6:37 PM AST
Civil Twilight 5:16 AM AST 7:01 PM AST
Nautical Twilight 4:49 AM AST 7:28 PM AST
Astronomical Twilight 4:21 AM AST 7:56 PM AST
Moon 6:42 PM AST (5/14) 5:28 AM AST (5/14)
Length of Visible Light 13h 44m
Length of Day
12h 58m
Full, 100% of the Moon is Illuminated
May 14
Full
May 14
Full
May 21
Last Quarter
May 28
New
Jun 5
First Quarter

Hourly Weather History & Observations

Time (AST) Temp. Heat Index Dew Point Humidity Pressure Visibility Wind Dir Wind Speed Gust Speed Precip Events Conditions
12:00 AM 77.0 °F - 71.6 °F 83% 30.01 in 6.2 mi East 11.5 mph - N/A   Mostly Cloudy
1:00 AM 78.8 °F - 69.8 °F 74% 29.98 in 6.2 mi East 13.8 mph - N/A   Scattered Clouds
2:00 AM 78 °F - 70 °F 69% 29.98 in 25 mi East 13.8 mph - -   Partly Cloudy
2:00 AM 78.8 °F - 69.8 °F 74% 29.98 in 6.2 mi East 13.8 mph - N/A   Scattered Clouds
3:00 AM 77.0 °F - 71.6 °F 83% 29.95 in 6.2 mi East 9.2 mph - N/A   Scattered Clouds
4:00 AM 77.0 °F - 69.8 °F 78% 29.98 in 6.2 mi ESE 9.2 mph - N/A   Scattered Clouds
5:00 AM 77 °F - 71 °F 76% 29.98 in 12 mi East 12.7 mph - - Rain Light Rain Showers
5:00 AM 77.0 °F - 71.6 °F 83% 29.98 in 6.2 mi East 12.7 mph - N/A Rain Light Rain Showers
6:00 AM 78.8 °F - 71.6 °F 78% 29.98 in 6.2 mi East 12.7 mph - N/A   Scattered Clouds
7:00 AM 78.8 °F - 71.6 °F 78% 30.01 in 6.2 mi ESE 12.7 mph - N/A   Scattered Clouds
8:00 AM 80 °F - 72 °F 70% 30.03 in 19 mi East 11.5 mph - - Rain Light Rain Showers
8:00 AM 80.6 °F 84.6 °F 71.6 °F 74% 30.02 in 6.2 mi East 11.5 mph - N/A   Scattered Clouds
8:41 AM 78.8 °F - 71.6 °F 78% 30.04 in 6.2 mi East 9.2 mph - N/A Rain Light Rain Showers
9:00 AM 78.8 °F - 71.6 °F 78% 30.04 in 6.2 mi East 15.0 mph - N/A   Scattered Clouds
9:11 AM 80.6 °F 84.6 °F 71.6 °F 74% 30.04 in 6.2 mi East 15.0 mph - N/A   Mostly Cloudy
10:00 AM 80.6 °F 84.6 °F 71.6 °F 74% 30.04 in 6.2 mi East 12.7 mph - N/A   Mostly Cloudy
11:00 AM 82 °F - 71 °F 62% 30.04 in 37 mi East 11.5 mph - -   Mostly Cloudy
11:00 AM 82.4 °F 87.2 °F 71.6 °F 70% 30.03 in 6.2 mi East 11.5 mph 24.2 mph N/A   Mostly Cloudy
11:14 AM 82.4 °F 87.2 °F 71.6 °F 70% 30.01 in 6.2 mi East 12.7 mph - N/A Rain Light Rain Showers
11:30 AM 80.6 °F 84.6 °F 71.6 °F 74% 30.01 in 6.2 mi East 13.8 mph 28.8 mph N/A   Mostly Cloudy
12:00 PM 82.4 °F 87.2 °F 71.6 °F 70% 30.01 in 6.2 mi East 12.7 mph - N/A   Scattered Clouds
1:00 PM 82.4 °F 86.3 °F 69.8 °F 66% 30.01 in 6.2 mi East 11.5 mph - N/A   Mostly Cloudy
2:00 PM 83 °F - 71 °F 59% 30.00 in 31 mi SE 10.4 mph - -   Partly Cloudy
2:00 PM 84.2 °F 89.6 °F 71.6 °F 66% 29.98 in 6.2 mi East 10.4 mph - N/A   Scattered Clouds
3:00 PM 82.4 °F 87.2 °F 71.6 °F 70% 29.98 in 6.2 mi East 10.4 mph - N/A   Mostly Cloudy
4:00 PM 82.4 °F 87.2 °F 71.6 °F 70% 29.98 in 6.2 mi East 10.4 mph - N/A   Scattered Clouds
5:00 PM 82 °F - 71 °F 62% 29.99 in 28 mi ESE 12.7 mph - -   Partly Cloudy
5:00 PM 82.4 °F 87.2 °F 71.6 °F 70% 29.98 in 6.2 mi East 11.5 mph - N/A   Scattered Clouds
6:00 PM 80.6 °F 84.6 °F 71.6 °F 74% 29.98 in 6.2 mi East 11.5 mph - N/A   Scattered Clouds
7:00 PM 80.6 °F 84.6 °F 71.6 °F 74% 30.01 in 6.2 mi ENE 13.8 mph - N/A   Partly Cloudy
8:00 PM 79 °F - 71 °F 72% 30.03 in 25 mi East 12.7 mph - - Rain Light Rain Showers
8:00 PM 78.8 °F - 71.6 °F 78% 30.01 in 6.2 mi East 12.7 mph - N/A Rain Light Rain Showers
9:00 PM 78.8 °F - 71.6 °F 78% 30.04 in 6.2 mi NE 11.5 mph - N/A   Mostly Cloudy
10:00 PM 77.0 °F - 71.6 °F 83% 30.04 in 6.2 mi ENE 10.4 mph - N/A Rain Light Rain Showers
11:00 PM 78 °F - 72 °F 78% 30.05 in 22 mi East 12.7 mph - - Rain Light Rain Showers
11:00 PM 78.8 °F - 71.6 °F 78% 30.04 in 6.2 mi ENE 10.4 mph - N/A   Partly Cloudy